weather.gov     
National Weather Service

Regional Weather Roundup
NWS Homepage
This page is being discontinued on March 12, 2014.
The same data is available at this site. Please update your bookmarks.
Thank you, and we apologize for the inconvenience.
Please send an email to SR-SRH.Webmaster@noaa.gov with any concerns.


Current Version
Previous Version:    01  02  03  04  05  06  07  08  09  10  11  12  13  14  15  16  17  18  19  20  21  22  23  24  25  26  
[Printable]
759
ASUS44 KMOB 231410
RWRMOB
REGIONAL WEATHER ROUNDUP
NATIONAL WEATHER SERVICE MOBILE AL
800 AM CST SUN NOV 23 2014

NOTE: "FAIR" INDICATES FEW OR NO CLOUDS BELOW 12,000 FEET WITH NO
      SIGNIFICANT WEATHER AND/OR OBSTRUCTIONS TO VISIBILITY.

  * THESE STATIONS ARE PART OF THE UNIVERSITY OF SOUTH ALABAMA
    MESONET AND ARE NOT UNDER NWS OR FAA QUALITY CONTROL.

ALZ061>064-231500-
COASTAL ALABAMA

CITY           SKY/WX    TMP DP  RH WIND       PRES   REMARKS
MOBILE REG APT CLOUDY    69  69 100 SE15      29.77R FOG
BROOKLEY FIELD CLOUDY    69  68  96 SE13      29.78S FOG
USA CAMPUS*      N/A     70  70 100 S2        29.77
DOG RIVER*     NOT AVBL


CITY           SKY/WX    TMP DP  RH WIND       PRES   REMARKS
MOUNT VERNON*    N/A     64  64 100 S3        29.76
SARALAND*      NOT AVBL
BAY MINETTE*   NOT AVBL
LOXLEY*          N/A     72  72 100 S12       29.77
ROBERTSDALE*     N/A     72  72 100 S9        29.76
FAIRHOPE*        N/A     73  72  94 S15       29.76F
ELBERTA*         N/A     73  72  94 SE6       29.77F
FOLEY*           N/A     64  63  94 NE6       29.81
GRAND BAY*       N/A     72  72 100 S13       29.74
DAUPHIN ISLND* NOT AVBL
BON SCOUR NWR* NOT AVBL
GULF SHORES    CLOUDY    71  70  96 SE13G20   29.77F FOG

$$

ALZ051>060-231500-
INTERIOR SOUTHWEST AND SOUTH CENTRAL ALABAMA

CITY           SKY/WX    TMP DP  RH WIND       PRES   REMARKS
GREENVILLE     CLOUDY    64  62  93 S9        29.84S
EVERGREEN      CLOUDY    66  65  96 E9        29.81F FOG
CASTLEBERRY*   NOT AVBL
ATMORE*          N/A     70  70 100 SE8       29.80F
DIXIE*           N/A     64  64 100 SE3       29.81S
ANDALUSIA/OPP  CLOUDY    67  63  87 SE8       29.84S FOG
ANDALUSIA*       N/A     63  63 100 E12       29.85R
FLORALA APT    LGT RAIN  65  64  97 VRB5      29.85F FOG
FLORALA*         N/A     64  63  94 NE6       29.81

$$

FLZ001>006-231500-
WESTERN FLORIDA PANHANDLE

CITY           SKY/WX    TMP DP  RH WIND       PRES   REMARKS
PENSACOLA      LGT RAIN  69  69 100 SE16      29.79F
NAS PENSACOLA  LGT RAIN  71  70  96 SE14      29.78S FOG
MILTON         LGT RAIN  73  71  93 S20G28    29.80F
WHTNG S FIELD  CLOUDY    75  32  20 S20       29.79F


CITY           SKY/WX    TMP DP  RH WIND       PRES   REMARKS
WALNUT HILL*   NOT AVBL
JAY*             N/A     70  68  94 SE9       29.79
DUKE FIELD     CLOUDY    72  70  94 SE13G23   29.81F
CRESTVIEW      CLOUDY    71  70  96 S9        29.84F FOG
VALPARAISO     CLOUDY    69  68  97 SE15      29.82F FOG
DESTIN         CLOUDY    72  69  90 SE13G23   29.82F FOG

$$

MSZ076-079-231500-
INTERIOR SOUTHEAST MISSISSIPPI

CITY           SKY/WX    TMP DP  RH WIND       PRES   REMARKS
LEAKESVILLE*     N/A     64  64 100 E6        29.75
AGRICOLA*      NOT AVBL

$$

MARINE OBSERVATIONS

STATION/POSITION TIME  TEMP    WIND        PRES    WAVE
                       AIR SEA DIR/SP/G            HT/PER
                 (UTC) (F)     (DEG/KT/KT) (MB)    (FT/S)
PASCAGOULA       1400   68     140/ 15/ 21 1006.8S
PETIT BOIS ISLND 1400   69     160/ 13/ 17 1007.6R
GRAND BAY        1300   65     120/  9     1008.0F
KATRINA CUT      1300   66     140/ 12     1007.8F
CEDAR POINT      1300   65     130/ 10     1007.8S
E DAUPHIN ISLAND 1257   68     130/ 14/ 15 1007.5F
USCG MOBILE BAY  1400   67 59  170/  7/ 12 1006.7R
STATE DOCKS      1400   71 59              1007.7R
MEAHER PARK      1300   72     120/ 12     1007.1F
WEEKS BAY        1300   72                   N/A
FORT MORGAN      1400   69     170/ 24/ 26 1007.4R
12 S ORANGE BCH  1400   72 69  140/ 16/ 17 1007.1F   7/ 7
PENSACOLA BAY    1400   72 58  160/ 10/ 14 1008.8R
64 S DAUPHIN ISL 1341   76 73  190/ 21/ 25 1009.0R   6/ 8
67 S FORT MORGAN 1300   76     190/ 31     1008.8S

$$

SELECTED LOCATIONS ACROSS THE REGION

CITY           SKY/WX    TMP DP  RH WIND       PRES   REMARKS
NEW ORLEANS    LGT RAIN  65  62  90 S14       29.73S
GULFPORT       CLOUDY    69  68  96 S10       29.72R
PASCAGOULA AP  CLOUDY    72  70  93 SE14      29.74R
PASCAGOULA*    NOT AVBL
HATTIESBURG    HVY RAIN  61  60  97 NE3       29.72F FOG
LAUREL         CLOUDY    61  57  88 SE6       29.75F
MERIDIAN       LGT RAIN  59  58  96 E3        29.74F FOG
JACKSON        LGT RAIN  61  60  97 SE10      29.69F
MONTGOMERY     CLOUDY    63  60  90 E9        29.86F
TROY           LGT RAIN  63  62  97 E10G18    29.87F
KINSTON*       NOT AVBL
GENEVA*          N/A     64  63  94 CALM      29.89
ASHFORD*         N/A     63  63 100 E12       29.85R
DOTHAN         LGT RAIN  63  62  97 E9        29.91F FOG
PANAMA CITY    LGT RAIN  73  70  90 SE21G29   29.86F FOG

$$





U.S. Dept. of Commerce
NOAA National Weather Service
1325 East West Highway
Silver Spring, MD 20910
E-mail: w-nws.webmaster@noaa.gov
Page last modified: May 16, 2007
NATIONAL WEATHER SERVICE: for Safety, for Work, for Fun - FOR LIFE